Юильск

Россия / Ханты-Мансийский автономный округ - Югра     63°40′39″N   69°38′41″E
темп.,
°C
ветер,
м/с
пор.,
м/с
влажн.,
%
обл.,
%
осадки,
мм/ч
давл.,
гПа
погр.,
м
26 октября, вт
вт2623:00−3вюв3496100 1.1 1006280
02:00−3всв3496100 1.6 1004295
05:00−3ссв2496100 2.5 1004292
08:00−4ссз479468 0.4 1004457
11:00−4ссз7117222 0.4 1004675
14:00−4сз711642 0.0 1004814
17:00−5зсз611745 0.0 1004442
20:00−5зсз712745 0.0 1004532
27 октября, ср
ср2723:00−5зсз814755 0.0 1004588
02:00−6з814767 0.0 1005560
05:00−5з8127490 0.0 1006823
08:00−5зсз7127696 0.0 1007913
11:00−5зсз7107298 0.1 10091183
14:00−4зсз696699 0.1 10111334
17:00−6з35765 0.1 101295
20:00−6зюз348159 0.0 101286
28 октября, чт
чт2823:00−6ю2482100 0.0 101172
02:00−5юв477899 0.0 1009189
05:00−5юв61177100 0.0 1007380
08:00−4юв61295100 0.5 1003481
11:00−2ююв61196100 1.1 1000496
14:00−2ююв51097100 1.1 997472
17:00−1ю4998100 2.0 994379
20:00−1ююз4898100 0.8 993331
29 октября, пт
пт2923:00−2ююз379898 1.1 992201
02:00−2зюз3798100 0.6 992255
05:00−3сз6995100 1.5 993351
08:00−6сз81292100 0.3 997535
11:00−7ссз91391100 0.6 1000670
14:00−8ссз91390100 0.3 1003781
17:00−9ссз101491100 0.7 1006868
20:00−10сз91589100 0.3 1009741
30 октября, сб
сб3023:00−11сз814795 0.3 1011457
02:00−13зсз611895 0.0 1012246
05:00−12з489311 0.0 1013176
08:00−13зюз369482 0.0 101397
11:00−9юз4686100 0.0 1012253
14:00−7ююз358599 0.0 1011375
17:00−7ююв3596100 0.3 1011201
20:00−7ююв2396100 0.4 101089